GW6917 Weather Reports


Display with metric or nautical units.
time (UTC)temp
F
wind
direction
speed
MPH
gust
MPH
rain 1hr
in
rain 24hr
in
rain mn
in
humidity
%
barometer
mb
20260506042533 38 56 0.0 2.0 0.00 0.13 0.00 86 1017.6
20260506042036 38 46 0.0 2.0 0.00 0.13 0.00 86 1017.6
20260506041559 38 0 0.0 1.0 0.00 0.13 0.00 87 1017.5
20260506041036 38 0 0.0 2.0 0.00 0.13 0.00 86 1017.6
20260506040536 38 56 0.0 2.0 0.00 0.13 0.00 86 1017.6
20260506040048 38 56 0.0 2.0 0.00 0.13 0.00 87 1017.5
20260506035536 38 76 0.0 1.0 0.00 0.13 0.00 86 1017.5
20260506035038 39 56 0.0 1.0 0.00 0.13 0.00 86 1017.6
20260506034545 39 0 0.0 1.0 0.00 0.13 0.00 86 1017.6
20260506034033 39 0 0.0 2.0 0.00 0.13 0.00 86 1017.6
20260506033537 39 0 0.0 2.0 0.00 0.13 0.00 86 1017.6
20260506033051 39 0 0.0 2.0 0.00 0.13 0.00 86 1017.7
20260506032533 39 46 0.0 2.0 0.00 0.13 0.00 86 1017.6
20260506032033 39 76 0.0 3.0 0.00 0.13 0.00 86 1017.7
20260506031547 39 56 1.0 3.0 0.00 0.13 0.00 86 1017.7
20260506031035 39 63 1.0 3.0 0.00 0.13 0.00 86 1017.8
20260506030535 39 76 0.0 2.0 0.00 0.13 0.00 86 1017.7
20260506030048 39 0 0.0 2.0 0.00 0.13 0.00 86 1017.8
20260506025535 39 0 0.0 2.0 0.00 0.13 0.00 86 1017.7
20260506025033 39 0 0.0 2.0 0.00 0.13 0.00 86 1017.8
20260506024553 39 0 0.0 2.0 0.00 0.13 0.00 86 1017.7
20260506024033 39 0 0.0 2.0 0.00 0.13 0.00 86 1017.8
20260506023533 39 46 0.0 2.0 0.00 0.13 0.00 86 1017.7
20260506023053 39 35 0.0 2.0 0.00 0.13 0.00 87 1017.8
20260506022535 40 63 0.0 2.0 0.00 0.13 0.00 87 1017.8
20260506022034 40 0 0.0 2.0 0.00 0.13 0.00 87 1017.6
20260506021554 40 20 0.0 2.0 0.00 0.13 0.00 87 1017.8
20260506021033 40 56 0.0 2.0 0.00 0.13 0.00 87 1017.7
20260506020533 40 63 0.0 2.0 0.00 0.13 0.00 87 1017.7
20260506020048 40 56 1.0 2.0 0.00 0.13 0.00 87 1017.7
20260506015533 40 53 1.0 3.0 0.00 0.13 0.00 87 1017.8
20260506015037 40 46 1.0 3.0 0.00 0.13 0.00 87 1017.9
20260506014552 40 49 1.0 2.0 0.00 0.13 0.00 87 1017.8
20260506014035 40 46 1.0 2.0 0.00 0.13 0.00 87 1017.8
20260506013534 40 53 1.0 2.0 0.00 0.13 0.00 87 1017.8
20260506013048 40 46 0.0 2.0 0.00 0.13 0.00 87 1017.8
20260506012533 40 39 0.0 2.0 0.00 0.13 0.00 87 1017.9
20260506012035 40 0 0.0 1.0 0.00 0.13 0.00 87 1017.8
20260506011547 40 46 0.0 3.0 0.00 0.13 0.00 87 1018.0
20260506011033 40 0 0.0 3.0 0.00 0.13 0.00 87 1017.8
20260506010537 40 51 1.0 3.0 0.00 0.13 0.00 87 1017.7
20260506010054 40 39 0.0 2.0 0.00 0.13 0.00 87 1017.8
20260506005537 40 46 0.0 2.0 0.00 0.13 0.00 86 1017.9
20260506005033 40 46 0.0 2.0 0.00 0.13 0.00 86 1017.9
20260506004556 40 28 0.0 2.0 0.00 0.13 0.00 86 1017.9
20260506004033 40 0 0.0 2.0 0.00 0.13 0.00 86 1018.0
20260506003533 40 0 1.0 2.0 0.00 0.13 0.00 86 1017.9
20260506003041 40 46 1.0 2.0 0.00 0.13 0.00 85 1017.9
20260506002535 39 46 0.0 1.0 0.00 0.13 0.00 85 1017.9
20260506002033 39 0 0.0 1.0 0.00 0.13 0.00 85 1018.0
20260506001607 39 0 0.0 1.0 0.00 0.13 0.00 85 1017.9
20260506001033 39 0 0.0 1.0 0.00 0.13 0.00 84 1018.0
20260506000535 39 0 0.0 1.0 0.00 0.13 0.00 85 1017.9
20260506000049 39 178 0.0 1.0 0.00 0.13 0.00 84 1017.8
20260505235534 39 35 0.0 2.0 0.00 0.13 0.00 84 1018.0
20260505235033 39 0 0.0 2.0 0.00 0.13 0.00 84 1017.9
20260505234550 40 124 0.0 2.0 0.00 0.13 0.00 84 1018.0
20260505234033 40 35 0.0 2.0 0.00 0.13 0.00 84 1018.0
20260505233532 40 108 0.0 2.0 0.00 0.13 0.00 83 1018.0
20260505233047 40 0 0.0 2.0 0.00 0.13 0.00 83 1018.0
20260505232533 40 0 1.0 2.0 0.00 0.13 0.00 83 1018.2
20260505232034 40 76 0.0 2.0 0.00 0.13 0.00 83 1018.2
20260505231550 40 46 0.0 2.0 0.00 0.13 0.00 82 1018.2
20260505231035 40 63 0.0 2.0 0.00 0.13 0.00 82 1018.2
20260505230533 40 46 0.0 2.0 0.00 0.13 0.00 82 1018.2
20260505230044 40 53 0.0 2.0 0.00 0.13 0.00 81 1018.1
20260505225537 40 40 1.0 2.0 0.00 0.13 0.13 81 1018.2
20260505225034 40 53 1.0 2.0 0.00 0.13 0.13 81 1018.2
20260505224543 40 76 0.0 3.0 0.00 0.13 0.13 81 1018.2
20260505224033 41 0 0.0 3.0 0.00 0.13 0.13 81 1018.2
20260505223533 41 72 0.0 3.0 0.00 0.13 0.13 80 1018.2
20260505223055 41 68 0.0 3.0 0.00 0.13 0.13 80 1018.2
20260505222534 41 89 0.0 4.0 0.00 0.13 0.13 80 1018.2
20260505222033 41 28 1.0 4.0 0.00 0.13 0.13 80 1018.2
20260505221552 41 46 1.0 4.0 0.00 0.13 0.13 80 1018.1
20260505221035 41 23 1.0 8.0 0.00 0.13 0.13 80 1018.2
20260505220532 42 77 2.0 8.0 0.00 0.13 0.13 80 1018.0
20260505220044 42 28 1.0 6.0 0.00 0.13 0.13 80 1018.1
20260505215534 42 53 2.0 6.0 0.00 0.13 0.13 80 1018.1
20260505215033 42 56 2.0 6.0 0.00 0.13 0.13 80 1018.2
20260505214600 42 46 1.0 4.0 0.00 0.13 0.13 80 1018.1
20260505214033 42 82 0.0 5.0 0.00 0.13 0.13 80 1018.0
20260505213533 42 33 1.0 7.0 0.00 0.13 0.13 79 1018.0
20260505213055 43 100 3.0 7.0 0.00 0.13 0.13 79 1017.9
20260505212533 43 161 1.0 7.0 0.00 0.13 0.13 79 1017.9
20260505212033 43 89 2.0 8.0 0.00 0.13 0.13 79 1017.9
20260505211545 43 35 2.0 8.0 0.00 0.13 0.13 79 1017.9
20260505211033 43 70 1.0 3.0 0.00 0.13 0.13 78 1017.9
20260505210534 43 59 1.0 5.0 0.00 0.13 0.13 78 1017.8
20260505210052 43 0 2.0 7.0 0.00 0.13 0.13 78 1017.8
20260505205535 43 65 1.0 8.0 0.00 0.13 0.13 78 1017.9
20260505205036 43 49 2.0 8.0 0.00 0.13 0.13 78 1017.8
20260505204545 43 46 2.0 7.0 0.00 0.13 0.13 78 1017.9
20260505204033 44 63 2.0 6.0 0.00 0.13 0.13 78 1017.9
20260505203533 44 65 2.0 6.0 0.00 0.13 0.13 78 1017.8
20260505203051 44 174 1.0 8.0 0.00 0.13 0.13 78 1017.8
20260505202533 44 150 3.0 10.0 0.00 0.13 0.13 78 1017.9
20260505202036 44 347 2.0 10.0 0.00 0.13 0.13 78 1017.8
20260505201554 44 63 2.0 10.0 0.00 0.13 0.13 78 1017.7
20260505201033 44 101 3.0 10.0 0.00 0.13 0.13 78 1017.8
20260505200533 44 75 3.0 10.0 0.00 0.13 0.13 78 1017.7
20260505200046 44 42 3.0 9.0 0.00 0.13 0.13 78 1017.7
20260505195533 45 41 2.0 7.0 0.00 0.13 0.13 77 1017.5
20260505195035 45 13 2.0 7.0 0.00 0.13 0.13 77 1017.5
20260505194543 45 23 2.0 8.0 0.00 0.13 0.13 77 1017.6
20260505194034 45 52 3.0 8.0 0.00 0.13 0.13 76 1017.6
20260505193535 45 72 3.0 13.0 0.00 0.13 0.13 76 1017.4
20260505193048 45 65 4.0 13.0 0.00 0.13 0.13 76 1017.4
20260505192532 45 27 3.0 11.0 0.00 0.13 0.13 77 1017.4
20260505192032 45 67 2.0 8.0 0.00 0.13 0.13 77 1017.5
20260505191552 45 65 3.0 8.0 0.00 0.13 0.13 77 1017.4
20260505191033 46 95 2.0 8.0 0.00 0.13 0.13 76 1017.4
20260505190533 46 49 3.0 8.0 0.00 0.13 0.13 76 1017.2
20260505190104 46 223 1.0 6.0 0.00 0.13 0.13 76 1017.3
20260505185535 46 54 2.0 7.0 0.00 0.13 0.13 75 1017.2
20260505185033 46 49 3.0 7.0 0.00 0.13 0.13 75 1017.3
20260505184601 46 96 3.0 9.0 0.00 0.13 0.13 75 1017.4
20260505184033 46 96 3.0 9.0 0.00 0.13 0.13 75 1017.2
20260505183537 46 76 3.0 11.0 0.00 0.13 0.13 74 1017.4
20260505183056 46 13 5.0 11.0 0.00 0.13 0.13 75 1017.3
20260505182536 47 47 4.0 12.0 0.00 0.13 0.13 75 1017.3
20260505182035 47 51 5.0 12.0 0.00 0.13 0.13 74 1017.3
20260505181553 47 89 3.0 10.0 0.00 0.13 0.13 74 1017.1
20260505181036 47 66 4.0 10.0 0.00 0.13 0.13 74 1017.1
20260505180535 47 65 2.0 9.0 0.00 0.13 0.13 74 1017.1
20260505180056 47 20 3.0 9.0 0.00 0.13 0.13 73 1017.1
20260505175534 47 74 4.0 10.0 0.00 0.13 0.13 73 1017.1
20260505175034 47 137 2.0 10.0 0.00 0.13 0.13 73 1017.3
20260505174550 47 39 4.0 11.0 0.00 0.13 0.13 73 1017.2
20260505174033 48 77 4.0 11.0 0.00 0.13 0.13 73 1017.2
20260505173534 48 56 4.0 10.0 0.00 0.13 0.13 73 1017.0
20260505173049 48 342 4.0 10.0 0.00 0.13 0.13 73 1017.2
20260505172534 48 32 2.0 11.0 0.00 0.13 0.13 73 1017.1
20260505172033 48 103 3.0 11.0 0.00 0.13 0.13 73 1017.0
20260505171548 48 1 3.0 11.0 0.00 0.13 0.13 73 1016.9
20260505171033 48 39 3.0 11.0 0.00 0.13 0.13 72 1017.0
20260505170533 48 49 3.0 11.0 0.00 0.13 0.13 72 1017.1
20260505170054 48 42 4.0 13.0 0.00 0.13 0.13 73 1017.1
20260505165534 48 314 4.0 13.0 0.00 0.13 0.13 73 1017.0
20260505165034 48 95 4.0 12.0 0.00 0.13 0.13 75 1017.0
20260505164547 48 49 3.0 9.0 0.00 0.13 0.13 75 1016.9
20260505164034 48 105 3.0 9.0 0.00 0.13 0.13 75 1017.0
20260505163533 48 53 3.0 10.0 0.00 0.13 0.13 75 1017.0
20260505163055 48 52 4.0 10.0 0.00 0.13 0.13 75 1017.0
20260505162533 48 130 4.0 11.0 0.00 0.13 0.13 75 1016.9
20260505162033 48 72 6.0 11.0 0.00 0.13 0.13 75 1016.8
20260505161555 49 113 3.0 13.0 0.00 0.13 0.13 76 1016.8
20260505161034 49 49 3.0 13.0 0.00 0.13 0.13 77 1016.7
20260505160536 49 37 3.0 8.0 0.00 0.13 0.13 76 1016.6
20260505153052 49 161 4.0 11.0 0.00 0.13 0.13 79 1016.3
20260505152532 49 13 2.0 6.0 0.00 0.13 0.13 78 1016.4
20260505152033 49 65 2.0 12.0 0.00 0.13 0.13 78 1016.4
20260505151542 49 44 4.0 14.0 0.00 0.13 0.13 78 1016.4
20260505151034 49 83 5.0 14.0 0.00 0.13 0.13 79 1016.3
20260505150536 49 89 3.0 10.0 0.00 0.13 0.13 79 1016.4
20260505150107 50 32 3.0 9.0 0.02 0.13 0.13 79 1016.2
20260505140534 53 93 3.0 13.0 0.03 0.11 0.11 78 1016.2
20260505125033 52 305 1.0 5.0 0.01 0.07 0.07 77 1016.0
20260505124547 52 314 1.0 4.0 0.01 0.06 0.06 76 1015.9
20260505124032 52 314 2.0 5.0 0.00 0.05 0.05 75 1015.9
20260505123533 53 317 2.0 5.0 0.00 0.05 0.05 76 1015.9
20260505123105 53 280 1.0 4.0 0.01 0.05 0.05 78 1015.9
20260505122535 52 241 1.0 4.0 0.03 0.05 0.05 82 1015.9
20260505122035 52 269 1.0 4.0 0.03 0.05 0.05 83 1015.9
20260505121553 52 241 1.0 4.0 0.03 0.05 0.05 83 1015.8
20260505121038 51 314 0.0 4.0 0.03 0.05 0.05 82 1015.8
20260505120533 51 20 1.0 4.0 0.03 0.05 0.05 82 1015.8
20260505120049 51 178 1.0 3.0 0.03 0.05 0.05 81 1015.7
20260505115535 51 296 1.0 3.0 0.03 0.05 0.05 80 1015.7
20260505115033 52 218 1.0 3.0 0.03 0.05 0.05 80 1015.8
20260505114556 52 152 0.0 3.0 0.03 0.04 0.04 78 1015.8
20260505114033 52 0 0.0 4.0 0.03 0.04 0.04 77 1015.8
20260505113532 52 89 1.0 5.0 0.03 0.04 0.04 76 1015.9
20260505113050 53 72 2.0 6.0 0.02 0.03 0.03 76 1015.9
20260505112535 53 77 2.0 6.0 0.00 0.02 0.02 74 1015.9
20260505112035 54 68 2.0 6.0 0.00 0.02 0.02 73 1015.9
20260505111558 54 115 2.0 6.0 0.00 0.01 0.01 71 1015.8
20260505111033 54 68 2.0 5.0 0.00 0.01 0.01 71 1015.7
20260505110535 54 6 2.0 6.0 0.00 0.01 0.01 72 1015.6
20260505102033 50 292 1.0 4.0 0.01 0.01 0.01 81 1015.9
20260505101546 50 190 0.0 2.0 0.01 0.01 0.01 81 1015.9
20260505101033 50 241 0.0 3.0 0.01 0.01 0.01 80 1016.0
20260505100536 50 241 1.0 5.0 0.01 0.01 0.01 79 1016.0
20260505100100 50 269 1.0 6.0 0.01 0.01 0.01 77 1016.1
20260505095534 51 328 1.0 6.0 0.00 0.00 0.00 76 1016.1
20260505095034 51 335 2.0 8.0 0.00 0.00 0.00 75 1016.0
20260505094550 52 25 3.0 8.0 0.00 0.00 0.00 73 1016.0
20260505094033 52 25 2.0 8.0 0.00 0.00 0.00 72 1015.9
20260505093533 52 32 2.0 7.0 0.00 0.00 0.00 72 1015.7
20260505093049 52 311 2.0 7.0 0.00 0.00 0.00 71 1015.8
20260505092533 52 314 2.0 6.0 0.00 0.00 0.00 72 1015.8
20260505092033 52 331 3.0 6.0 0.00 0.00 0.00 73 1015.7
20260505091548 52 18 3.0 8.0 0.00 0.00 0.00 74 1015.7
20260505091035 52 33 2.0 8.0 0.00 0.00 0.00 74 1015.7
20260505090534 52 353 4.0 8.0 0.00 0.00 0.00 76 1015.8
20260505090055 51 6 1.0 5.0 0.00 0.00 0.00 78 1015.7
20260505085535 51 296 2.0 5.0 0.00 0.00 0.00 77 1015.8
20260505085033 51 223 2.0 5.0 0.00 0.00 0.00 79 1015.8
20260505084544 51 46 1.0 8.0 0.00 0.00 0.00 80 1015.8
20260505084034 50 56 0.0 8.0 0.00 0.00 0.00 80 1015.8
20260505083536 50 296 2.0 6.0 0.00 0.00 0.00 80 1015.8
20260505083044 50 314 2.0 5.0 0.00 0.00 0.00 80 1015.8
20260505082535 50 338 1.0 5.0 0.00 0.00 0.00 80 1015.9
20260505082033 49 1 1.0 5.0 0.00 0.00 0.00 81 1015.8
20260505081550 49 329 2.0 7.0 0.00 0.00 0.00 81 1015.9
20260505081033 49 342 4.0 7.0 0.00 0.00 0.00 81 1015.8
20260505080535 49 18 4.0 6.0 0.00 0.00 0.00 82 1015.9
20260505080053 49 37 2.0 7.0 0.00 0.00 0.00 82 1015.8
20260505075533 48 1 3.0 8.0 0.00 0.00 0.00 82 1015.8
20260505075034 48 0 2.0 8.0 0.00 0.00 0.00 84 1015.7
20260505074544 48 337 2.0 5.0 0.00 0.00 0.00 84 1015.8
20260505074036 48 335 3.0 6.0 0.00 0.00 0.00 85 1015.8
20260505073532 48 346 2.0 6.0 0.00 0.00 0.00 84 1015.8
20260505073054 48 259 2.0 6.0 0.00 0.00 0.00 85 1015.7
20260505072535 48 314 3.0 6.0 0.00 0.00 0.00 85 1015.7
20260505072034 47 302 3.0 7.0 0.00 0.00 0.00 86 1015.7
20260505071548 47 318 2.0 7.0 0.00 0.00 0.00 86 1015.7
20260505071034 47 344 2.0 6.0 0.00 0.00 0.00 86 1015.7
20260505070533 47 9 2.0 6.0 0.00 0.00 0.00 87 1015.7
20260505070053 47 6 2.0 6.0 0.00 0.00 0.00 87 1015.7
20260505065533 47 6 2.0 5.0 0.00 0.00 0.00 87 1015.6
20260505065034 47 338 2.0 5.0 0.00 0.00 0.00 87 1015.6
20260505064545 47 234 2.0 5.0 0.00 0.00 0.00 87 1015.7
20260505064035 46 18 2.0 5.0 0.00 0.00 0.00 88 1015.6
20260505063535 46 352 2.0 5.0 0.00 0.00 0.00 88 1015.6
20260505063053 46 248 1.0 6.0 0.00 0.00 0.00 88 1015.7
20260505062535 46 269 2.0 6.0 0.00 0.00 0.00 88 1015.6
20260505062034 46 30 2.0 5.0 0.00 0.00 0.00 89 1015.6
20260505061542 46 0 1.0 4.0 0.00 0.00 0.00 89 1015.6
20260505061035 46 20 0.0 3.0 0.00 0.00 0.00 89 1015.5
20260505060534 46 250 1.0 3.0 0.00 0.00 0.00 89 1015.4
20260505060046 46 15 1.0 3.0 0.00 0.00 0.00 89 1015.4
20260505055534 45 0 1.0 3.0 0.00 0.00 0.00 89 1015.3
20260505055036 45 269 1.0 3.0 0.00 0.00 0.00 89 1015.3
20260505054556 45 285 1.0 3.0 0.00 0.00 0.00 89 1015.4
20260505054033 45 241 1.0 3.0 0.00 0.00 0.00 89 1015.4
20260505053532 45 206 1.0 3.0 0.00 0.00 0.00 88 1015.4
20260505053045 45 231 1.0 4.0 0.00 0.00 0.00 88 1015.4
20260505052535 45 231 2.0 4.0 0.00 0.00 0.00 88 1015.4
20260505052034 45 223 1.0 3.0 0.00 0.00 0.00 88 1015.3
20260505051543 45 0 0.0 3.0 0.00 0.00 0.00 88 1015.3
20260505051033 45 241 0.0 2.0 0.00 0.00 0.00 88 1015.2
20260505050533 45 241 0.0 3.0 0.00 0.00 0.00 88 1015.3
20260505050121 45 0 1.0 3.0 0.00 0.00 0.00 88 1015.3